Torna al catalogo

IGS 7A

AttivoMilitareSSO
NORAD 37954·PAYLOAD·🇯🇵 Japan

Lanciato Dec 12, 2011 da Tanegashima Space Center

Loading…

Prossimi Passaggi (prossime 24 ore)

TLE

ObsoletoSource: Mike McCants

Epoca: Aug 28, 2026, 22:33 UTC

1 37954U 11075A   26240.93964487 0.00002000  00000-0  99622-4 0    03
2 37954  97.4548 314.4576 0002707 100.9416 259.0582 15.17621095    02

Traccia IGS 7A in tempo reale con AllMySat

Download on the App Store